EW2263 Weather Reports


time (UTC)temp
C
wind
direction
speed
KPH
gust
KPH
rain 1hr
cm
rain 24hr
cm
rain mn
cm
humidity
%
barometer
mb
20260505200011 26 259 3.2 0.0 0.00 0.00 0.00 42 1010.1
20260505194512 27 115 4.8 0.0 0.00 0.00 0.00 40 1010.3
20260505193009 26 327 3.2 0.0 0.00 0.00 0.00 41 1010.6
20260505191507 26 145 4.8 0.0 0.00 0.00 0.00 45 1010.9
20260505190004 26 5 3.2 0.0 0.00 0.00 0.00 41 1011.0
20260505184504 26 245 3.2 0.0 0.00 0.00 0.00 42 1011.0
20260505183004 26 109 4.8 0.0 0.00 0.00 0.00 39 1011.1
20260505181600 26 350 3.2 0.0 0.00 0.00 0.00 38 1011.4
20260505180109 26 183 4.8 0.0 0.00 0.00 0.00 44 1012.0
20260505174606 26 119 4.8 0.0 0.00 0.00 0.00 40 1012.1
20260505173058 26 109 4.8 0.0 0.00 0.00 0.00 40 1012.2
20260505171558 26 269 3.2 0.0 0.00 0.00 0.00 42 1012.1
20260505170055 25 122 3.2 0.0 0.00 0.00 0.00 46 1011.9
20260505164554 25 136 4.8 0.0 0.00 0.00 0.00 48 1012.2
20260505163053 24 355 3.2 0.0 0.00 0.00 0.00 49 1012.2
20260505161558 25 182 4.8 0.0 0.00 0.00 0.00 44 1012.3
20260505153043 24 157 3.2 0.0 0.00 0.00 0.00 55 1012.6
20260505151539 23 138 1.6 0.0 0.00 0.00 0.00 56 1013.0
20260505124509 16 351 1.6 0.0 0.00 0.00 0.00 77 1012.4
20260505123003 15 302 3.2 0.0 0.00 0.00 0.00 82 1012.3
20260505121559 13 296 1.6 0.0 0.00 0.00 0.00 87 1012.3
20260505120055 12 5 0.0 0.0 0.00 0.00 0.00 90 1012.1
20260505114555 11 177 0.0 0.0 0.00 0.00 0.00 91 1011.9
20260505113109 10 282 0.0 0.0 0.00 0.00 0.00 91 1012.0
20260505111552 10 126 0.0 0.0 0.00 0.00 0.00 90 1012.1
20260505110153 10 218 0.0 0.0 0.00 0.00 0.00 90 1012.0
20260505101538 10 107 0.0 0.0 0.00 0.00 0.00 88 1011.8
20260505100038 10 227 0.0 0.0 0.00 0.00 0.00 88 1011.7
20260505094537 10 207 0.0 0.0 0.00 0.00 0.00 88 1011.7
20260505093039 10 153 0.0 0.0 0.00 0.00 0.00 89 1011.7
20260505091543 9 146 0.0 0.0 0.00 0.00 0.00 90 1011.7
20260505090035 9 125 0.0 0.0 0.00 0.00 0.00 90 1011.5
20260505084534 9 175 0.0 0.0 0.00 0.00 0.00 90 1011.5
20260505083034 9 175 0.0 0.0 0.00 0.00 0.00 89 1011.3
20260505081537 9 175 0.0 0.0 0.00 0.00 0.00 89 1011.4
20260505080031 9 175 0.0 0.0 0.00 0.00 0.00 89 1011.3
20260505074531 9 175 0.0 0.0 0.00 0.00 0.00 89 1011.2
20260505073032 9 175 0.0 0.0 0.00 0.00 0.00 90 1011.2
20260505071529 9 175 0.0 0.0 0.00 0.00 0.00 90 1011.1
20260505070036 9 175 0.0 0.0 0.00 0.00 0.00 89 1011.1
20260505064528 9 157 0.0 0.0 0.00 0.00 0.00 89 1011.2
20260505063027 9 157 0.0 0.0 0.00 0.00 0.00 88 1011.0
20260505061534 9 157 0.0 0.0 0.00 0.00 0.00 88 1011.0
20260505060024 10 157 0.0 0.0 0.00 0.00 0.00 87 1011.1
20260505054523 10 157 0.0 0.0 0.00 0.00 0.00 87 1011.1
20260505053020 10 157 0.0 0.0 0.00 0.00 0.00 86 1011.2
20260505051533 10 157 0.0 0.0 0.00 0.00 0.00 85 1011.4
20260505041510 11 157 0.0 0.0 0.00 0.00 0.00 82 1011.5
20260505040013 11 157 0.0 0.0 0.00 0.00 0.00 81 1011.4
20260505034507 12 157 0.0 0.0 0.00 0.00 0.00 80 1011.5
20260505033006 12 157 0.0 0.0 0.00 0.00 0.00 79 1011.6
20260505031505 12 157 0.0 0.0 0.00 0.00 0.00 78 1011.5
20260505030005 13 157 0.0 0.0 0.00 0.00 0.00 76 1011.6
20260505024509 13 157 0.0 0.0 0.00 0.00 0.00 74 1011.5
20260505023004 14 157 0.0 0.0 0.00 0.00 0.00 72 1011.4
20260505021504 15 157 0.0 0.0 0.00 0.00 0.00 69 1011.4
20260505020007 15 157 0.0 0.0 0.00 0.00 0.00 67 1011.2
20260505014504 16 157 0.0 0.0 0.00 0.00 0.00 64 1011.0
20260505013002 16 157 0.0 0.0 0.00 0.00 0.00 62 1010.9
20260505011501 17 157 0.0 0.0 0.00 0.00 0.00 59 1010.7
20260505010002 18 157 0.0 0.0 0.00 0.00 0.00 56 1010.7
20260505004504 19 157 0.0 0.0 0.00 0.00 0.00 54 1010.5
20260505003002 20 160 0.0 0.0 0.00 0.00 0.00 50 1010.5
20260505001609 20 128 0.0 0.0 0.00 0.00 0.00 48 1010.5
20260504234600 22 184 1.6 0.0 0.00 0.00 0.00 44 1010.2
20260504233109 22 150 3.2 0.0 0.00 0.00 0.00 42 1010.0
20260504231604 23 257 1.6 0.0 0.00 0.00 0.00 38 1009.9
20260504230157 23 102 3.2 0.0 0.00 0.00 0.00 35 1009.9
20260504224543 24 103 1.6 0.0 0.00 0.00 0.00 38 1009.9
20260504223042 25 224 1.6 0.0 0.00 0.00 0.00 35 1009.9
20260504221542 26 325 3.2 0.0 0.00 0.00 0.00 34 1010.0
20260504220041 26 184 3.2 0.0 0.00 0.00 0.00 34 1010.0
20260504214542 26 105 1.6 0.0 0.00 0.00 0.00 35 1009.9
20260504213040 27 80 3.2 0.0 0.00 0.00 0.00 34 1009.9
20260504211540 27 132 1.6 0.0 0.00 0.00 0.00 35 1009.9
20260504210043 27 205 3.2 0.0 0.00 0.00 0.00 33 1010.0
20260504204545 27 197 3.2 0.0 0.00 0.00 0.00 36 1010.1
20260504203051 26 150 3.2 0.0 0.00 0.00 0.00 34 1010.2
20260504201534 27 72 3.2 0.0 0.00 0.00 0.00 34 1010.3